"Pseudo-MPEC" for ZTF10F4

Created 2026 Jul 28 21:35:16 UT using Find_Orb

Click here for an explanation of pseudo-MPECs

 
 Astrometry: 
     ZTF10F4*0C2026 07 25.37216422 40 52.354+25 42 16.18   ~7PE5 18.50gUNEOCPI41
     ZTF10F4 0C2026 07 25.37251122 40 50.471+25 42 13.20   ~7PE5 18.50gUNEOCPI41
     ZTF10F4 0C2026 07 25.41667222 36 53.448+25 36 50.63   ~7PE5 17.46RUNEOCPI41
     ZTF10F4 0C2026 07 25.41702022 36 51.727+25 36 48.17   ~7PE5 17.46RUNEOCPI41

Station data:
(I41) Palomar Mountain--ZTF  (N33.357336 W116.859780)  US/California.
   Observers B. T. Bolin, Z. T. F. Collaboration. Measurers B. T. Bolin,
   Z.-Y. Lin, F. J. Masci. 1.2-m f/2.4 Schmidt.

Orbital elements:  ZTF10F4
   Perihelion 2026 May 18.684518 +/- 58 TT = 16:25:42.3 (JD 2461179.184518)
Epoch 2026 Jul 25.0 TT = JDT 2461246.5   Earth MOID: 0.0275   Ve: 0.0901
M 163.900085882 +/- 90              Me: 0.0804                   AutoNEOCP
n   2.434805198 +/- 1.13            Peri.  359.405070 +/- 70
a   0.547217405 +/- 0.169           Node   121.846776 +/- 110
e   0.91140171 +/- 0.21             Incl.  145.475828 +/- 60
P   0.405/147.853d         H 22.64  G  0.15   U 12.8  SR
q 0.048482525 +/- 0.32    Q 1.045952285 +/- 9.62          (J2000 ecliptic)
From 4 observations 2026 July 25 (64.6 min); mean residual 0".62
Residuals in arcseconds: 
260725 I41  .32+  .30+    260725 I41  1.2-  .12-    
260725 I41  .31-  .30-    260725 I41  1.2+  .12+    

Ephemerides (geocentric):
Date (UTC) HH   RA             Dec           delta  r     elong  mag " sig PA
---- --------  ------------   ------------  ------ ------ -----  --- --------
2026 07 28 22  16 31 26.564   -07 29 43.39  .05596 1.0451 120.8 18.5  42d 111
2026 07 28 23  16 29 28.349   -07 43 36.36  .05667 1.0451 120.3 18.6  42d 111
2026 07 29 00  16 27 32.954   -07 57 06.72  .05738 1.0451 119.9 18.6  42d 111
2026 07 29 01  16 25 40.296   -08 10 15.17  .05810 1.0451 119.5 18.6  42d 111
2026 07 29 02  16 23 50.293   -08 23 02.41  .05883 1.0452 119.1 18.7  42d 111
2026 07 29 03  16 22 02.867   -08 35 29.12  .05956 1.0452 118.7 18.7  42d 111
2026 07 29 04  16 20 17.940   -08 47 35.97  .06029 1.0452 118.3 18.7  42d 111
2026 07 29 05  16 18 35.439   -08 59 23.58  .06103 1.0452 117.9 18.8  42d 111
2026 07 29 06  16 16 55.292   -09 10 52.58  .06177 1.0453 117.5 18.8  42d 111
2026 07 29 07  16 15 17.429   -09 22 03.57  .06251 1.0453 117.2 18.9  42d 111
2026 07 29 08  16 13 41.782   -09 32 57.13  .06326 1.0453 116.8 18.9  42d 111
2026 07 29 09  16 12 08.287   -09 43 33.82  .06401 1.0453 116.4 18.9  42d 111
2026 07 29 10  16 10 36.880   -09 53 54.18  .06477 1.0454 116.1 19.0  42d 111
2026 07 29 11  16 09 07.500   -10 03 58.75  .06553 1.0454 115.7 19.0  42d 111
2026 07 29 12  16 07 40.088   -10 13 48.03  .06629 1.0454 115.4 19.0  42d 111
2026 07 29 13  16 06 14.587   -10 23 22.51  .06706 1.0454 115.1 19.1  42d 111
2026 07 29 14  16 04 50.941   -10 32 42.67  .06782 1.0454 114.7 19.1  42d 111
2026 07 29 15  16 03 29.097   -10 41 48.96  .06859 1.0455 114.4 19.1  42d 111
2026 07 29 16  16 02 09.003   -10 50 41.83  .06937 1.0455 114.1 19.2  42d 111
2026 07 29 17  16 00 50.609   -10 59 21.70  .07014 1.0455 113.8 19.2  42d 111
2026 07 29 18  15 59 33.866   -11 07 48.99  .07092 1.0455 113.5 19.2  42d 111
2026 07 29 19  15 58 18.728   -11 16 04.09  .07170 1.0455 113.2 19.3  41d 111
2026 07 29 20  15 57 05.150   -11 24 07.39  .07249 1.0456 112.9 19.3  41d 111
2026 07 29 21  15 55 53.087   -11 31 59.25  .07327 1.0456 112.6 19.3  41d 111
2026 07 29 22  15 54 42.497   -11 39 40.03  .07406 1.0456 112.3 19.3  41d 111
2026 07 29 23  15 53 33.340   -11 47 10.08  .07485 1.0456 112.1 19.4  41d 111
2026 07 30 00  15 52 25.576   -11 54 29.73  .07564 1.0456 111.8 19.4  41d 111
2026 07 30 01  15 51 19.166   -12 01 39.29  .07644 1.0456 111.5 19.4  41d 111
2026 07 30 02  15 50 14.074   -12 08 39.08  .07724 1.0457 111.2 19.5  41d 111
2026 07 30 03  15 49 10.263   -12 15 29.40  .07803 1.0457 111.0 19.5  41d 111
2026 07 30 04  15 48 07.699   -12 22 10.52  .07883 1.0457 110.7 19.5  41d 111
2026 07 30 05  15 47 06.349   -12 28 42.73  .07964 1.0457 110.5 19.6  41d 111
2026 07 30 06  15 46 06.180   -12 35 06.29  .08044 1.0457 110.2 19.6  41d 111
2026 07 30 07  15 45 07.161   -12 41 21.47  .08125 1.0457 110.0 19.6  41d 111
2026 07 30 08  15 44 09.260   -12 47 28.50  .08205 1.0457 109.8 19.6  41d 111
2026 07 30 09  15 43 12.450   -12 53 27.64  .08286 1.0458 109.5 19.7  41d 111
2026 07 30 10  15 42 16.701   -12 59 19.10  .08367 1.0458 109.3 19.7  41d 111
2026 07 30 11  15 41 21.987   -13 05 03.12  .08448 1.0458 109.1 19.7  41d 111
2026 07 30 12  15 40 28.279   -13 10 39.91  .08530 1.0458 108.8 19.7  41d 111
2026 07 30 13  15 39 35.553   -13 16 09.68  .08611 1.0458 108.6 19.8  41d 111
2026 07 30 14  15 38 43.783   -13 21 32.63  .08693 1.0458 108.4 19.8  41d 111
2026 07 30 15  15 37 52.945   -13 26 48.95  .08775 1.0458 108.2 19.8  41d 111
2026 07 30 16  15 37 03.016   -13 31 58.83  .08856 1.0458 108.0 19.8  41d 111
2026 07 30 17  15 36 13.973   -13 37 02.45  .08938 1.0458 107.8 19.9  41d 111
2026 07 30 18  15 35 25.794   -13 41 59.98  .09021 1.0459 107.6 19.9  41d 111
2026 07 30 19  15 34 38.458   -13 46 51.60  .09103 1.0459 107.3 19.9  41d 111
2026 07 30 20  15 33 51.943   -13 51 37.47  .09185 1.0459 107.1 19.9  41d 111
2026 07 30 21  15 33 06.231   -13 56 17.74  .09268 1.0459 107.0 20.0  41d 111